����,�C�@��,���@�x,���@��,���@��,���@��,�ϐ�[,�ϐ�d��1,�ϐ�d��2,�ϐ�d��3,�J�@��,�~��o��,�~�ይ�x�i��j,�~�ይ�x�i���j,�~�ይ�x�i���j,���,�Z��~����1,�Z��~����2,�Z��~����3,�Z��~����4,�J�ᔻ��,�Z���T���x
����,��,��,kw/�u,��,m/s,cm,kg/�u,kg/�u,kg/�u,mm,1=�L_0=��,1=�L_0=��,1=�L_0=��,1=�L_0=��,p,p,p,p,p,��,��
2022-03-01 00:00:00,1.43,90.10,0.000,78.03,0.05,99.4,277.12,0.00,-323.97,0.0,0,0,0,0,0,83.00,0.00,0.00,0.00,-0.21,-222.00
2022-03-01 00:10:00,1.51,90.20,0.000,70.69,0.04,99.4,279.82,0.00,-325.32,0.0,0,0,0,0,0,103.00,0.00,0.00,0.00,-0.29,-220.80
2022-03-01 00:20:00,1.47,90.40,0.000,190.30,0.08,99.4,278.47,0.00,-335.48,0.0,0,0,0,0,0,84.00,0.00,0.00,0.00,-0.29,-220.70
2022-03-01 00:30:00,1.47,90.60,0.000,153.20,0.05,99.4,280.50,0.00,-337.17,0.0,0,0,0,0,0,104.00,0.00,0.00,0.00,-0.46,-223.60
2022-03-01 00:40:00,1.39,90.60,0.001,198.90,0.04,99.4,278.47,0.00,-327.69,0.0,0,0,0,0,0,83.00,0.00,0.00,0.00,-0.25,-220.90
2022-03-01 00:50:00,1.46,90.70,0.000,197.30,0.05,99.4,281.52,0.00,-327.69,0.0,0,0,0,0,0,83.00,0.00,0.00,0.00,-0.34,-224.20
2022-03-01 01:00:00,1.22,90.50,0.000,281.90,0.06,99.4,280.84,0.00,-327.69,0.0,0,0,0,0,0,104.00,0.00,0.00,0.00,-0.63,-222.20
2022-03-01 01:10:00,0.89,90.50,0.000,343.90,0.04,99.4,277.12,0.00,-326.68,0.0,0,0,0,0,0,82.00,0.00,0.00,0.00,-0.91,-222.10
2022-03-01 01:20:00,0.64,90.70,0.019,106.50,0.05,99.4,280.50,0.00,-326.68,0.0,0,0,0,0,0,83.00,0.00,0.00,0.00,-1.03,-222.80
2022-03-01 01:30:00,0.40,90.80,0.000,63.85,0.08,99.3,281.18,0.00,-324.64,0.0,0,0,0,0,0,104.00,0.00,0.00,0.00,-1.24,-222.90
2022-03-01 01:40:00,0.52,91.20,0.000,19.36,0.03,99.3,280.50,0.00,-324.98,0.0,0,0,0,0,0,83.00,0.00,0.00,0.00,-1.24,-219.30
2022-03-01 01:50:00,0.40,91.50,0.001,305.40,0.04,99.4,280.50,0.00,-323.63,0.0,0,0,0,0,0,84.00,0.00,0.00,0.00,-1.16,-223.70
2022-03-01 02:00:00,0.69,91.70,0.001,24.04,0.02,99.5,278.13,0.00,-325.66,0.0,0,0,0,0,0,83.00,0.00,0.00,0.00,-0.94,-221.90
2022-03-01 02:10:00,0.57,91.30,0.000,117.00,0.04,99.4,277.12,0.00,-329.72,0.0,0,0,0,0,0,83.00,0.00,0.00,0.00,-1.15,-223.10
2022-03-01 02:20:00,0.62,91.40,0.001,7.23,0.03,99.4,276.44,0.00,-329.38,0.0,0,0,0,0,0,84.00,0.00,0.00,0.00,-1.10,-223.90
2022-03-01 02:30:00,0.58,91.40,0.001,196.40,0.06,99.4,278.47,0.00,-322.61,0.0,0,0,0,0,0,104.00,0.00,0.00,0.00,-0.94,-225.00
2022-03-01 02:40:00,0.90,91.60,0.000,206.50,0.03,99.3,279.15,0.00,-328.71,0.0,0,0,0,0,0,83.00,0.00,0.00,0.00,-0.73,-224.10
2022-03-01 02:50:00,0.83,91.20,0.000,200.70,0.07,99.3,275.76,0.00,-326.34,0.0,0,0,0,0,0,83.00,0.00,0.00,0.00,-0.94,-223.90
2022-03-01 03:00:00,0.83,91.00,0.000,166.50,0.03,99.4,276.44,0.00,-326.68,0.0,0,0,0,0,0,83.00,0.00,0.00,0.00,-0.85,-223.20
2022-03-01 03:10:00,0.75,91.10,0.000,192.30,0.05,99.2,279.15,0.00,-326.34,0.0,0,0,0,0,0,83.00,0.00,0.00,0.00,-0.93,-223.50
2022-03-01 03:20:00,0.58,90.60,0.000,150.10,0.05,99.4,279.15,0.00,-326.34,0.0,0,0,0,0,0,82.00,0.00,0.00,0.00,-1.26,-223.90
2022-03-01 03:30:00,0.71,91.00,0.000,177.80,0.06,99.3,275.76,0.00,-326.68,0.0,0,0,0,0,0,83.00,0.00,0.00,0.00,-0.93,-224.10
2022-03-01 03:40:00,0.30,90.10,0.000,133.50,0.05,99.4,279.82,0.00,-338.19,0.0,0,0,0,0,0,83.00,0.00,0.00,0.00,-1.51,-223.90
2022-03-01 03:50:00,0.18,90.70,0.000,341.70,0.03,99.4,276.44,0.00,-330.06,0.0,0,0,0,0,0,83.00,0.00,0.00,0.00,-1.46,-223.10
2022-03-01 04:00:00,0.38,90.90,0.000,205.60,0.05,99.6,275.76,0.00,-329.05,0.0,0,0,0,0,0,83.00,0.00,0.00,0.00,-1.59,-223.60
2022-03-01 04:10:00,0.10,90.40,0.000,154.70,0.03,99.4,279.15,0.00,-328.03,0.0,0,0,0,0,0,65.00,0.00,0.00,0.00,-1.62,-223.60
2022-03-01 04:20:00,-0.22,90.90,0.000,104.60,0.02,99.6,278.81,0.00,-326.00,0.0,0,0,0,0,0,81.00,0.00,0.00,0.00,-1.93,-221.70
2022-03-01 04:30:00,0.20,91.30,0.001,217.20,0.04,2.5,278.47,0.00,-327.01,0.0,0,0,0,0,0,83.00,0.00,0.00,0.00,-1.56,-220.90
2022-03-01 04:40:00,0.65,91.30,0.002,201.10,0.05,2.2,275.76,0.00,-327.01,0.0,0,0,0,0,0,83.00,0.00,0.00,0.00,-1.19,-222.90
2022-03-01 04:50:00,0.82,90.70,0.002,190.80,0.03,99.3,278.81,0.00,-324.64,0.0,0,0,0,0,0,83.00,0.00,0.00,0.00,-0.99,-222.00
2022-03-01 05:00:00,0.86,89.90,0.000,345.00,0.02,99.4,274.41,0.00,-327.69,0.0,0,0,0,0,0,63.00,0.00,0.00,0.00,-0.82,-223.00
2022-03-01 05:10:00,0.09,89.30,0.000,84.00,0.06,99.4,277.79,0.00,-338.52,0.0,0,0,0,0,0,83.00,0.00,0.00,0.00,-1.63,-223.30
2022-03-01 05:20:00,-0.17,90.00,0.000,26.68,0.02,99.4,274.07,0.00,-329.72,0.0,0,0,0,0,0,41.00,0.00,0.00,0.00,-1.97,-223.40
2022-03-01 05:30:00,-0.09,90.60,0.000,79.30,0.04,99.3,277.79,0.00,-328.03,0.0,0,0,0,0,0,21.00,0.00,0.00,0.00,-1.81,-223.00
2022-03-01 05:40:00,-0.05,90.70,0.001,179.90,0.03,99.5,274.07,0.00,-328.37,0.0,0,0,0,0,0,41.00,0.00,0.00,0.00,-1.81,-221.70
2022-03-01 05:50:00,0.28,90.50,0.002,206.00,0.05,99.4,275.08,0.00,-319.91,0.0,0,0,0,0,0,21.00,0.00,0.00,0.00,-1.56,-222.50
2022-03-01 06:00:00,0.29,90.40,0.002,195.50,0.02,99.4,278.47,0.00,-326.34,0.0,0,0,0,0,0,20.00,0.00,0.00,0.00,-1.27,-222.90
2022-03-01 06:10:00,0.17,89.50,0.001,131.80,0.02,99.4,277.45,0.00,-326.00,0.0,0,0,0,0,0,21.00,0.00,0.00,0.00,-1.55,-222.90
2022-03-01 06:20:00,-0.09,90.00,0.005,42.37,0.04,99.3,277.12,0.00,-324.31,0.0,0,0,0,0,0,20.00,0.00,0.00,0.00,-1.89,-222.50
2022-03-01 06:30:00,0.16,90.20,0.017,244.40,0.03,99.6,277.12,0.00,-335.82,0.0,0,0,0,0,0,33.00,0.00,0.00,0.00,-1.52,-222.70
2022-03-01 06:40:00,0.28,90.10,0.029,177.80,0.07,99.3,273.73,0.00,-324.98,0.0,0,0,0,0,0,29.00,0.00,0.00,0.00,-0.95,-222.50
2022-03-01 06:50:00,0.41,89.80,0.043,190.80,0.10,99.3,276.44,0.00,-327.01,0.0,0,0,0,0,0,21.00,0.00,0.00,0.00,-0.69,-222.90
2022-03-01 07:00:00,0.67,89.50,0.060,159.10,0.03,99.3,271.36,0.00,-325.32,0.0,0,0,0,0,0,20.00,0.00,0.00,0.00,-0.31,-223.10
2022-03-01 07:10:00,0.13,89.50,0.081,119.20,0.11,99.3,272.38,0.00,-325.32,0.0,0,0,0,0,0,21.00,0.00,0.00,0.00,-0.40,-222.70
2022-03-01 07:20:00,0.41,89.60,0.087,295.40,0.04,99.3,275.08,0.00,-322.61,0.0,0,0,0,0,0,20.00,0.00,0.00,0.00,-0.12,-222.90
2022-03-01 07:30:00,0.90,89.50,0.060,214.50,0.04,99.3,274.41,0.00,-321.60,0.0,0,0,0,0,0,21.00,0.00,0.00,0.00,0.21,-222.10
2022-03-01 07:40:00,1.18,88.60,0.066,188.20,0.03,99.4,274.41,0.00,-322.61,0.0,0,0,0,0,0,20.00,0.00,0.00,22.00,0.53,-222.70
2022-03-01 07:50:00,1.58,88.10,0.169,156.90,0.01,99.3,275.08,0.00,-317.87,0.0,0,0,0,0,0,21.00,0.00,0.00,0.00,0.93,-223.20
2022-03-01 08:00:00,1.44,86.70,0.264,94.60,0.04,99.2,274.41,0.00,-317.54,0.0,0,0,0,0,0,20.00,0.00,0.00,0.00,1.16,-221.60
2022-03-01 08:10:00,1.80,86.60,0.333,24.18,0.04,99.3,271.70,0.00,-324.98,0.0,0,0,0,0,0,21.00,0.00,0.00,0.00,2.01,-221.70
2022-03-01 08:20:00,2.95,84.70,0.370,191.00,0.03,99.4,274.41,0.00,-316.86,0.0,0,0,0,0,0,20.00,0.00,0.00,0.00,3.24,-222.00
2022-03-01 08:30:00,3.60,79.86,0.385,194.10,0.05,99.2,273.73,0.00,-312.46,0.0,0,0,0,0,0,21.00,0.00,0.00,0.00,3.77,-220.70
2022-03-01 08:40:00,3.93,76.68,0.302,193.90,0.13,99.2,272.04,0.00,-309.07,0.0,0,0,0,0,0,20.00,0.00,0.00,0.00,4.18,-219.50
2022-03-01 08:50:00,4.10,73.83,0.110,189.50,0.16,99.3,270.35,0.00,-304.67,0.0,0,0,0,0,0,21.00,0.00,0.00,0.00,4.27,-219.90
2022-03-01 09:00:00,4.34,73.12,0.549,155.30,0.12,99.3,272.38,0.00,-300.27,0.0,0,0,0,0,0,20.00,0.00,0.00,0.00,5.38,-219.70
2022-03-01 09:10:00,4.55,72.55,0.304,187.50,0.05,99.3,267.64,0.00,-296.21,0.0,0,0,0,0,0,21.00,0.00,0.00,0.00,7.84,-220.10
2022-03-01 09:20:00,4.51,71.63,0.581,202.30,0.06,99.3,271.02,0.00,-293.50,0.0,0,0,0,0,0,20.00,0.00,0.00,0.00,9.66,-220.20
2022-03-01 09:30:00,4.59,71.50,0.570,214.60,0.04,99.2,272.38,0.00,-290.45,0.0,0,0,0,0,0,21.00,0.00,0.00,0.00,9.91,-221.30
2022-03-01 09:40:00,5.08,71.60,0.478,204.60,0.12,99.2,268.99,0.00,-288.42,0.0,0,0,0,0,0,20.00,0.00,0.00,0.00,7.68,-221.30
2022-03-01 09:50:00,5.99,69.26,0.739,199.60,0.07,0.8,273.73,0.00,-289.10,0.0,0,0,0,0,0,20.00,0.00,0.00,0.00,13.41,-220.90
2022-03-01 10:00:00,5.91,67.70,0.362,199.00,0.07,0.3,273.39,0.00,-286.05,0.0,0,0,0,0,0,21.00,0.00,0.00,0.00,10.69,-221.90
2022-03-01 10:10:00,6.07,65.98,0.431,222.50,0.10,99.2,271.02,0.00,-281.65,0.0,0,0,0,0,0,20.00,0.00,0.00,0.00,13.16,-222.00
2022-03-01 10:20:00,6.24,63.91,0.743,217.30,0.19,0.0,270.35,0.00,-277.25,0.0,0,0,0,0,0,0.00,0.00,0.00,0.00,14.07,-223.20
2022-03-01 10:30:00,7.06,63.54,0.596,212.60,0.12,0.0,274.41,0.00,-273.87,0.0,0,0,0,0,0,21.00,0.00,0.00,0.00,13.33,-222.80
2022-03-01 10:40:00,6.98,61.85,0.618,214.80,0.05,0.0,274.41,0.00,-270.48,0.0,0,0,0,0,0,20.00,0.00,0.00,0.00,13.82,-224.10
2022-03-01 10:50:00,7.10,60.60,0.611,217.40,0.20,0.0,271.02,0.00,-267.10,0.0,0,0,0,0,0,21.00,0.00,0.00,0.00,13.57,-223.50
2022-03-01 11:00:00,7.64,59.68,0.639,214.90,0.07,0.0,274.07,0.00,-267.77,0.0,0,0,0,0,0,20.00,0.00,0.00,0.00,12.79,-223.10
2022-03-01 11:10:00,7.87,56.70,0.588,213.50,0.18,0.0,274.41,0.00,-262.02,0.0,0,0,0,0,0,21.00,0.00,0.00,0.00,12.40,-222.70
2022-03-01 11:20:00,8.27,55.15,0.503,222.30,0.21,0.0,274.75,0.00,-259.99,0.0,0,0,0,0,0,0.00,0.00,0.00,0.00,12.84,-222.30
2022-03-01 11:30:00,8.34,53.69,0.471,204.50,0.19,98.6,274.41,0.00,-254.91,0.0,0,0,0,0,0,21.00,0.00,0.00,0.00,13.17,-220.80
2022-03-01 11:40:00,9.11,53.83,0.571,169.60,0.24,0.0,270.68,0.00,-253.22,0.0,0,0,0,0,0,20.00,0.00,0.00,0.00,13.24,-221.40
2022-03-01 11:50:00,9.31,50.54,0.609,146.20,0.23,0.0,273.05,0.00,-250.51,0.0,0,0,0,0,0,21.00,0.00,0.00,0.00,13.31,-221.60
2022-03-01 12:00:00,9.55,49.53,0.457,212.20,0.29,0.0,271.02,0.00,-248.14,0.0,0,0,0,0,0,20.00,0.00,0.00,0.00,14.46,-219.40
2022-03-01 12:10:00,10.29,47.33,0.509,102.10,0.25,98.0,270.68,0.00,-242.72,0.0,0,0,0,0,0,0.00,0.00,0.00,0.00,14.74,-216.90
2022-03-01 12:20:00,10.55,46.95,0.567,156.50,0.25,97.9,272.38,0.00,-239.34,0.0,0,0,0,0,0,20.00,0.00,0.00,0.00,15.95,-215.10
2022-03-01 12:30:00,10.79,45.80,0.445,209.50,0.26,0.0,271.02,0.00,-238.32,0.0,0,0,0,0,0,21.00,0.00,0.00,0.00,16.20,-216.70
2022-03-01 12:40:00,10.29,46.38,0.410,213.60,0.22,0.0,271.72,0.00,-239.69,0.0,0,0,0,0,0,20.00,0.00,0.00,0.00,15.36,-215.50
2022-03-01 12:50:00,10.03,44.79,0.362,208.40,0.17,0.0,271.06,0.00,-241.05,0.0,0,0,0,0,0,21.00,0.00,0.00,0.00,14.82,-214.40
2022-03-01 13:00:00,10.52,42.49,0.255,194.30,0.18,0.0,271.74,0.00,-241.06,0.0,0,0,0,0,0,21.00,0.00,0.00,0.00,13.95,-213.60
2022-03-01 13:10:00,10.15,44.89,0.223,209.30,0.13,0.0,271.07,0.00,-241.74,0.0,0,0,0,0,0,20.00,0.00,0.00,0.00,13.49,-212.20
2022-03-01 13:20:00,10.53,43.24,0.190,190.70,0.12,0.0,271.08,0.00,-245.81,0.0,0,0,0,0,0,41.00,0.00,0.00,0.00,12.80,-211.20
2022-03-01 13:30:00,10.54,43.98,0.178,152.10,0.10,97.1,272.44,0.00,-245.81,0.0,0,0,0,0,0,41.00,25.00,0.00,0.00,12.89,-211.60
2022-03-01 13:40:00,10.29,43.34,0.136,205.30,0.08,97.0,271.08,0.00,-248.86,0.0,0,0,0,0,0,42.00,0.00,0.00,0.00,12.02,-211.70
2022-03-01 13:50:00,9.92,45.00,0.109,213.50,0.10,97.1,273.79,0.00,-253.60,0.0,0,0,0,0,0,61.00,0.00,0.00,0.00,11.28,-212.30
2022-03-01 14:00:00,10.05,44.90,0.107,215.90,0.12,96.9,275.14,0.00,-259.35,0.0,0,0,0,0,0,41.00,0.00,0.00,0.00,11.00,-212.60
2022-03-01 14:10:00,10.62,38.43,0.104,205.00,0.07,97.1,274.47,0.00,-266.46,0.0,0,0,0,0,0,83.00,0.00,0.00,0.00,11.28,-213.40
2022-03-01 14:20:00,10.78,37.21,0.077,223.20,0.38,97.1,273.10,0.00,-271.19,0.0,0,0,0,0,0,83.00,0.00,0.00,0.00,10.98,-214.10
2022-03-01 14:30:00,10.69,38.83,0.068,218.10,0.27,97.1,274.46,0.00,-277.97,0.0,0,0,0,0,0,82.00,0.00,0.00,0.00,10.65,-214.20
2022-03-01 14:40:00,10.23,43.24,0.066,229.50,0.63,96.7,274.46,0.00,-283.38,0.0,0,0,0,0,0,104.00,0.00,0.00,0.00,10.15,-215.20
2022-03-01 14:50:00,9.58,50.72,0.049,224.20,1.06,96.7,273.76,0.00,-288.11,0.0,0,0,0,0,0,84.00,0.00,0.00,0.00,9.34,-216.10
2022-03-01 15:00:00,9.22,51.76,0.084,216.70,0.99,96.7,275.12,0.00,-293.53,0.0,0,0,0,0,0,103.00,0.00,0.00,0.00,9.09,-214.80
2022-03-01 15:10:00,9.06,53.32,0.051,212.30,0.37,96.7,270.39,0.00,-297.60,0.0,0,0,0,0,0,83.00,0.00,0.00,0.00,8.78,-214.70
2022-03-01 15:20:00,8.78,55.76,0.067,211.50,0.41,96.7,275.11,0.00,-301.98,0.0,0,0,0,0,0,104.00,0.00,0.00,0.00,8.45,-215.40
2022-03-01 15:30:00,8.58,56.13,0.064,220.60,0.83,96.5,272.39,0.00,-304.34,0.0,0,0,0,0,0,103.00,0.00,0.00,0.00,8.38,-216.00
2022-03-01 15:40:00,8.33,57.55,0.042,225.10,0.31,96.5,275.77,0.00,-308.06,0.0,0,0,0,0,0,82.00,0.00,0.00,0.00,8.13,-216.50
2022-03-01 15:50:00,8.00,61.41,0.039,8.32,0.11,96.5,271.03,0.00,-310.77,0.0,0,0,0,0,0,103.00,0.00,0.00,0.00,7.72,-217.90
2022-03-01 16:00:00,8.08,62.05,0.032,153.80,0.12,96.5,274.08,0.00,-311.45,0.0,0,0,0,0,0,103.00,0.00,0.00,0.00,7.64,-216.40
2022-03-01 16:10:00,8.00,63.17,0.038,171.00,0.16,96.5,275.09,0.00,-312.12,0.0,0,0,0,0,1,102.00,0.00,0.00,0.00,7.72,-218.00
2022-03-01 16:20:00,8.17,61.61,0.042,196.10,0.16,96.6,271.71,0.00,-311.45,0.0,0,0,0,0,0,83.00,0.00,0.00,0.00,7.76,-219.40
2022-03-01 16:30:00,8.05,61.27,0.057,210.60,0.08,96.5,275.09,0.00,-312.80,0.0,0,0,0,0,0,105.00,0.00,0.00,0.00,7.89,-218.10
2022-03-01 16:40:00,8.09,61.61,0.044,205.70,0.12,96.4,275.09,0.00,-310.77,0.0,0,0,0,0,0,104.00,0.00,0.00,0.00,7.72,-218.90
2022-03-01 16:50:00,7.85,61.75,0.023,184.00,0.17,96.3,270.35,0.00,-312.46,0.0,0,0,0,0,0,84.00,0.00,0.00,0.00,7.36,-218.90
2022-03-01 17:00:00,7.36,63.37,0.020,85.00,0.22,96.3,274.75,0.00,-312.80,0.0,0,0,0,0,0,104.00,0.00,0.00,0.00,6.83,-219.50
2022-03-01 17:10:00,7.20,64.52,0.008,36.16,0.10,96.3,275.08,0.00,-315.17,0.0,0,0,0,0,0,105.00,0.00,0.00,0.00,6.42,-218.60
2022-03-01 17:20:00,7.04,65.47,0.007,83.00,0.23,96.4,269.67,0.00,-316.18,0.0,0,0,0,0,0,104.00,0.00,0.00,0.00,6.26,-220.20
2022-03-01 17:30:00,6.92,66.22,0.002,39.79,0.17,96.4,274.75,0.00,-315.17,0.0,0,0,0,0,0,104.00,0.00,0.00,0.00,6.18,-222.00
2022-03-01 17:40:00,7.05,66.55,0.000,47.22,0.16,96.4,269.67,0.00,-315.17,0.0,0,0,0,0,0,83.00,0.00,0.00,0.00,6.02,-221.80
2022-03-01 17:50:00,7.05,67.74,0.000,193.70,0.09,96.4,274.41,0.00,-315.17,0.0,0,0,0,0,0,105.00,0.00,0.00,0.00,5.78,-221.20
2022-03-01 18:00:00,6.47,69.80,0.000,168.00,0.10,96.3,268.99,0.00,-315.50,0.0,0,0,0,0,0,104.00,0.00,0.00,0.00,5.03,-219.10
2022-03-01 18:10:00,6.04,72.17,0.000,167.10,0.13,96.3,273.73,0.00,-315.84,0.0,0,0,0,0,0,105.00,0.00,0.00,0.00,4.89,-219.20
2022-03-01 18:20:00,5.56,72.58,0.000,176.20,0.13,96.4,268.99,0.00,-317.20,0.0,0,0,0,0,0,104.00,0.00,0.00,0.00,4.41,-219.50
2022-03-01 18:30:00,5.24,73.87,0.000,186.70,0.07,96.4,273.73,0.00,-317.87,0.0,0,0,0,0,0,84.00,0.00,0.00,0.00,4.09,-220.90
2022-03-01 18:40:00,5.33,76.24,0.000,187.70,0.06,96.2,268.31,0.00,-320.58,0.0,0,0,0,0,0,105.00,0.00,0.00,0.00,4.14,-219.40
2022-03-01 18:50:00,5.16,76.84,0.000,181.50,0.18,96.3,272.38,0.00,-322.61,0.0,0,0,0,0,0,104.00,0.00,0.00,0.00,3.85,-220.10
2022-03-01 19:00:00,4.92,77.89,0.000,181.30,0.19,96.3,271.70,0.00,-316.86,0.0,0,0,0,0,0,105.00,0.00,0.00,0.00,3.77,-220.40
2022-03-01 19:10:00,4.96,79.79,0.000,199.30,0.16,96.2,267.98,0.00,-323.63,0.0,0,0,0,0,0,105.00,0.00,0.00,0.00,3.56,-220.10
2022-03-01 19:20:00,4.84,80.90,0.000,162.70,0.16,96.2,267.64,0.00,-323.63,0.5,0,0,0,0,0,105.00,0.00,0.00,0.00,3.48,-220.70
2022-03-01 19:30:00,4.79,81.70,0.000,179.30,0.15,96.7,268.31,0.00,-322.95,0.0,0,0,0,0,0,105.00,0.00,0.00,0.00,3.48,-220.10
2022-03-01 19:40:00,4.83,82.50,0.000,184.40,0.16,96.4,271.70,0.00,-323.63,0.0,0,0,0,0,0,83.00,0.00,0.00,0.00,3.52,-219.40
2022-03-01 19:50:00,4.51,83.30,0.000,170.40,0.18,96.2,268.31,0.00,-323.63,0.0,0,0,0,0,0,104.00,0.00,0.00,0.00,3.24,-219.80
2022-03-01 20:00:00,4.67,84.50,0.000,191.90,0.17,96.3,268.65,0.00,-321.94,0.0,0,0,0,0,0,105.00,0.00,0.00,0.00,3.32,-220.60
2022-03-01 20:10:00,4.84,85.30,0.001,173.00,0.12,96.2,268.31,0.00,-323.63,0.0,0,0,0,0,0,104.00,0.00,0.00,0.00,3.56,-220.10
2022-03-01 20:20:00,5.08,85.00,0.001,177.50,0.19,96.2,270.68,0.00,-322.61,0.0,0,0,0,0,0,105.00,0.00,0.00,0.00,3.73,-219.10
2022-03-01 20:30:00,5.25,84.70,0.000,192.80,0.17,96.2,268.99,0.00,-319.91,0.0,0,0,0,0,0,104.00,0.00,0.00,0.00,3.65,-219.30
2022-03-01 20:40:00,4.59,85.20,0.000,201.10,0.26,1.0,270.68,0.00,-325.66,0.5,0,0,0,0,0,103.00,0.00,0.00,0.00,3.48,-219.40
2022-03-01 20:50:00,4.34,86.90,0.000,210.50,0.29,0.8,270.01,0.00,-324.64,0.0,0,0,0,0,0,104.00,0.00,0.00,0.00,3.19,-219.90
2022-03-01 21:00:00,4.18,87.60,0.000,216.70,0.26,96.2,268.99,0.00,-323.63,0.5,0,0,0,0,0,83.00,0.00,0.00,0.00,3.19,-220.10
2022-03-01 21:10:00,4.26,88.70,0.001,327.30,0.30,96.3,270.01,0.00,-315.17,0.5,0,0,0,0,0,104.00,0.00,0.00,0.00,3.15,-220.40
2022-03-01 21:20:00,4.46,89.10,0.001,193.70,0.22,96.0,271.02,0.00,-322.27,0.0,0,0,0,0,0,104.00,0.00,0.00,0.00,3.28,-220.10
2022-03-01 21:30:00,4.42,89.60,0.001,187.90,0.24,95.9,271.02,0.00,-315.50,0.5,0,0,0,0,0,103.00,0.00,0.00,0.00,3.32,-219.60
2022-03-01 21:40:00,4.46,89.60,0.000,183.70,0.27,95.9,271.36,0.00,-320.58,0.0,0,0,0,0,0,104.00,0.00,0.00,0.00,3.32,-217.80
2022-03-01 21:50:00,4.01,90.30,0.000,187.80,0.27,95.9,270.01,0.00,-332.77,0.0,0,0,0,0,0,104.00,0.00,0.00,0.00,2.99,-219.60
2022-03-01 22:00:00,4.46,91.30,0.002,175.50,0.27,95.8,269.67,0.00,-318.21,0.0,0,0,0,0,0,103.00,0.00,0.00,0.00,3.28,-220.30
2022-03-01 22:10:00,4.83,91.30,0.001,188.00,0.20,95.8,271.02,0.00,-322.27,0.0,0,0,0,0,0,83.00,0.00,0.00,0.00,3.52,-219.40
2022-03-01 22:20:00,5.00,91.20,0.001,189.80,0.26,95.9,270.35,0.00,-319.57,0.5,0,0,0,0,0,104.00,0.00,0.00,0.00,3.73,-218.80
2022-03-01 22:30:00,4.92,91.20,0.000,180.40,0.24,95.8,270.01,0.00,-318.55,0.0,0,0,0,0,0,104.00,0.00,0.00,0.00,3.73,-216.90
2022-03-01 22:40:00,4.26,90.00,0.000,205.40,0.26,95.7,270.68,0.00,-314.49,0.0,0,0,0,0,0,104.00,0.00,0.00,0.00,3.28,-216.70
2022-03-01 22:50:00,3.93,91.20,0.000,209.60,0.35,95.7,270.01,0.00,-315.17,0.5,0,0,0,0,0,104.00,0.00,0.00,0.00,2.87,-217.50
2022-03-01 23:00:00,3.76,91.70,0.000,198.40,0.24,95.6,270.35,0.00,-315.17,0.0,0,0,0,0,0,103.00,0.00,0.00,0.00,2.82,-215.90
2022-03-01 23:10:00,3.93,92.30,0.001,191.90,0.28,95.6,271.02,0.00,-313.13,0.0,0,0,0,0,0,104.00,0.00,0.00,0.00,2.82,-217.20
2022-03-01 23:20:00,4.01,92.30,0.001,190.00,0.28,95.5,271.02,0.00,-312.46,0.0,0,0,0,0,1,104.00,0.00,0.00,0.00,2.99,-217.30
2022-03-01 23:30:00,3.93,92.00,0.000,172.90,0.26,95.5,271.36,0.00,-316.18,0.0,0,0,0,0,0,104.00,0.00,0.00,0.00,2.87,-219.10
2022-03-01 23:40:00,4.18,91.90,0.000,175.40,0.27,95.5,270.68,0.00,-315.84,0.0,0,0,0,0,0,104.00,0.00,0.00,0.00,2.99,-218.00
2022-03-01 23:50:00,3.81,91.40,0.000,206.60,0.26,95.5,270.35,0.00,-312.80,0.5,0,0,0,0,0,104.00,0.00,0.00,0.00,2.70,-219.20
2022-03-02 00:00:00,3.73,91.90,0.000,204.80,0.26,95.5,269.67,0.00,-312.80,0.0,0,0,0,0,0,104.00,0.00,0.00,0.00,2.66,-219.40
2022-03-02 00:10:00,3.85,92.20,0.000,209.10,0.24,95.5,270.35,0.00,-311.10,0.0,0,0,0,0,0,104.00,0.00,0.00,0.00,2.66,-220.50
2022-03-02 00:20:00,3.52,92.30,0.000,208.10,0.32,95.5,270.01,0.00,-311.10,0.5,0,0,0,0,0,104.00,0.00,0.00,0.00,2.58,-220.70
2022-03-02 00:30:00,3.48,92.50,0.000,198.60,0.26,95.2,270.68,0.00,-310.43,0.0,0,0,0,0,0,104.00,0.00,0.00,0.00,2.50,-220.30
2022-03-02 00:40:00,3.52,93.00,0.000,198.70,0.29,95.3,270.01,0.00,-312.12,0.5,0,0,0,0,0,104.00,0.00,0.00,0.00,2.50,-220.10
2022-03-02 00:50:00,3.44,93.10,0.000,215.10,0.27,95.2,270.35,0.00,-313.13,0.0,0,0,0,0,0,101.00,0.00,0.00,0.00,2.50,-219.60
2022-03-02 01:00:00,3.48,93.50,0.001,215.30,0.26,95.2,270.35,0.00,-312.80,0.0,0,0,0,0,0,91.00,0.00,0.00,0.00,2.50,-219.60
2022-03-02 01:10:00,3.69,93.40,0.001,239.50,0.27,95.2,270.68,0.00,-310.43,0.5,0,0,0,0,0,99.00,0.00,0.00,0.00,2.62,-219.80
2022-03-02 01:20:00,3.89,93.50,0.000,181.60,0.26,95.1,270.35,0.00,-305.35,0.0,0,0,0,0,0,105.00,0.00,0.00,0.00,2.78,-219.90
2022-03-02 01:30:00,3.93,93.40,0.000,149.30,0.26,95.2,270.01,0.00,-304.67,0.5,0,0,0,0,0,104.00,0.00,0.00,0.00,2.74,-220.30
2022-03-02 01:40:00,3.64,93.20,0.000,181.70,0.26,95.1,271.02,0.00,-306.03,0.0,0,0,0,0,0,105.00,0.00,0.00,0.00,2.58,-220.20
2022-03-02 01:50:00,3.72,93.70,0.001,172.80,0.36,95.1,269.67,0.00,-305.01,0.0,0,0,0,0,0,104.00,0.00,0.00,0.00,2.66,-220.00
2022-03-02 02:00:00,4.01,93.60,0.001,177.50,0.21,95.1,269.67,0.00,-304.33,0.0,0,0,0,0,0,105.00,0.00,0.00,0.00,2.91,-220.10
2022-03-02 02:10:00,4.14,93.30,0.001,153.40,0.25,95.2,269.67,0.00,-305.35,0.0,0,0,0,0,0,105.00,0.00,0.00,0.00,3.07,-220.40
2022-03-02 02:20:00,4.26,92.90,0.001,154.30,0.17,95.2,269.67,0.00,-300.95,0.0,0,0,0,0,0,125.00,0.00,0.00,0.00,3.15,-219.80
2022-03-02 02:30:00,4.42,92.30,0.000,187.90,0.26,95.1,269.67,0.00,-290.79,0.0,0,0,0,0,0,105.00,0.00,0.00,0.00,3.24,-220.30
2022-03-02 02:40:00,3.85,91.80,0.000,203.50,0.27,95.1,270.35,0.00,-300.95,0.0,0,0,0,0,0,104.00,0.00,0.00,0.00,2.74,-219.60
2022-03-02 02:50:00,3.52,92.20,0.000,206.10,0.26,95.1,270.68,0.00,-299.26,0.0,0,0,0,0,0,104.00,0.00,0.00,0.00,2.41,-220.00
2022-03-02 03:00:00,3.44,92.60,0.000,200.80,0.26,95.1,268.99,0.00,-299.93,0.0,0,0,0,0,0,104.00,0.00,0.00,23.00,2.33,-219.90
2022-03-02 03:10:00,3.40,92.90,0.000,197.10,0.24,95.1,268.99,0.00,-298.92,0.0,0,0,0,0,0,124.00,0.00,0.00,0.00,2.25,-219.40
2022-03-02 03:20:00,3.60,92.90,0.001,202.80,0.30,95.0,269.67,0.00,-298.92,0.0,0,0,0,0,0,103.00,0.00,0.00,0.00,2.66,-220.10
2022-03-02 03:30:00,3.40,92.40,0.000,205.40,0.23,95.1,268.99,0.00,-297.90,0.0,0,0,0,0,0,103.00,0.00,0.00,0.00,2.37,-220.20
2022-03-02 03:40:00,3.27,92.60,0.000,206.80,0.19,94.9,268.99,0.00,-298.24,0.0,0,0,0,0,0,104.00,0.00,0.00,0.00,2.25,-219.50
2022-03-02 03:50:00,3.31,92.90,0.000,215.70,0.20,94.9,267.30,0.00,-303.99,0.0,0,0,0,0,0,124.00,0.00,0.00,0.00,2.33,-219.50
2022-03-02 04:00:00,3.31,92.90,0.001,209.40,0.23,95.1,268.31,0.00,-300.27,0.0,0,0,0,0,0,104.00,0.00,0.00,0.00,2.29,-219.80
2022-03-02 04:10:00,3.35,93.00,0.000,206.10,0.24,94.9,266.96,0.00,-299.59,0.0,0,0,0,0,0,105.00,0.00,0.00,0.00,2.37,-219.60
2022-03-02 04:20:00,3.31,92.80,0.000,226.10,0.24,94.9,266.96,0.00,-298.92,0.0,0,0,0,0,0,103.00,0.00,0.00,0.00,2.37,-220.20
2022-03-02 04:30:00,3.19,92.80,0.000,200.00,0.22,94.8,266.96,0.00,-295.19,0.0,0,0,0,0,0,125.00,0.00,0.00,0.00,2.17,-220.10
2022-03-02 04:40:00,3.31,93.00,0.000,169.30,0.23,94.9,266.96,0.00,-296.89,0.0,0,0,0,0,0,104.00,0.00,0.00,0.00,2.00,-219.70
2022-03-02 04:50:00,3.23,92.80,0.000,142.00,0.13,94.8,266.96,0.00,-295.19,0.0,0,0,0,0,0,103.00,0.00,0.00,0.00,1.92,-220.40
2022-03-02 05:00:00,3.19,93.00,0.000,184.90,0.19,94.9,266.96,0.00,-303.32,0.0,0,0,0,0,0,125.00,0.00,0.00,0.00,1.92,-219.90
2022-03-02 05:10:00,2.90,93.00,0.000,105.30,0.19,94.8,265.27,0.00,-299.26,0.0,0,0,0,0,0,103.00,0.00,0.00,0.00,1.76,-220.50
2022-03-02 05:20:00,3.02,93.20,0.001,180.00,0.17,94.9,264.59,0.00,-298.92,0.0,0,0,0,0,0,104.00,0.00,0.00,0.00,1.68,-221.10
2022-03-02 05:30:00,3.11,93.30,0.001,228.40,0.16,94.8,265.61,0.00,-298.58,0.0,0,0,0,0,0,103.00,0.00,0.00,0.00,2.04,-221.50
2022-03-02 05:40:00,3.15,93.10,0.001,196.70,0.15,94.8,264.93,0.00,-298.92,0.0,0,0,0,0,0,104.00,0.00,0.00,0.00,2.12,-220.70
2022-03-02 05:50:00,2.94,93.00,0.000,97.80,0.16,94.9,263.57,0.00,-297.90,0.0,0,0,0,0,0,124.00,0.00,0.00,0.00,1.88,-220.60
2022-03-02 06:00:00,2.70,93.10,0.000,182.40,0.11,94.8,264.59,0.00,-296.89,0.0,0,0,0,0,0,103.00,0.00,0.00,0.00,1.67,-220.40
2022-03-02 06:10:00,2.70,93.30,0.001,14.93,0.15,94.9,264.59,0.00,-296.89,0.0,0,0,0,0,0,103.00,0.00,0.00,0.00,1.27,-221.00
2022-03-02 06:20:00,2.87,93.60,0.003,231.30,0.18,94.8,263.57,0.00,-297.56,0.0,0,0,0,0,0,104.00,0.00,0.00,0.00,1.80,-221.40
2022-03-02 06:30:00,2.78,93.40,0.005,254.20,0.15,94.8,263.57,0.00,-297.22,0.0,0,0,0,0,0,104.00,0.00,0.00,0.00,1.80,-221.20
2022-03-02 06:40:00,2.82,93.60,0.013,67.89,0.16,94.8,262.22,0.00,-297.22,0.0,0,0,0,0,0,123.00,0.00,0.00,0.00,1.97,-221.50
2022-03-02 06:50:00,2.82,93.60,0.010,57.03,0.12,94.8,261.88,0.00,-299.59,0.0,0,0,0,0,0,106.00,0.00,0.00,0.00,1.96,-221.40
2022-03-02 07:00:00,2.91,93.50,0.026,178.20,0.14,94.8,262.22,0.00,-298.24,0.0,0,0,0,0,0,104.00,0.00,0.00,0.00,2.05,-220.90
2022-03-02 07:10:00,3.03,93.80,0.033,55.33,0.19,94.8,261.54,0.00,-297.56,0.0,0,0,0,0,0,105.00,0.00,0.00,0.00,2.37,-220.80
2022-03-02 07:20:00,3.19,93.90,0.046,219.30,0.18,94.8,261.88,0.00,-295.19,0.0,0,0,0,0,0,105.00,0.00,0.00,0.00,2.62,-221.80
2022-03-02 07:30:00,3.35,93.70,0.049,204.60,0.13,94.7,260.53,0.00,-293.50,0.0,0,0,0,0,0,104.00,0.00,0.00,0.00,2.91,-220.90
2022-03-02 07:40:00,3.35,93.50,0.050,175.30,0.11,94.7,261.21,0.00,-292.82,0.0,0,0,0,0,0,105.00,0.00,0.00,0.00,2.95,-220.50
2022-03-02 07:50:00,3.27,93.40,0.064,132.90,0.13,94.7,259.51,0.00,-290.45,0.0,0,0,0,0,0,104.00,0.00,0.00,0.00,3.11,-220.60
2022-03-02 08:00:00,3.23,93.60,0.045,189.40,0.12,94.7,260.87,0.00,-289.78,0.0,0,0,0,0,0,105.00,0.00,0.00,0.00,3.07,-221.10